TimeCEST,TemperatureF,Dew PointF,Humidity,Sea Level PressureIn,VisibilityMPH,Wind Direction,Wind SpeedMPH,Gust SpeedMPH,PrecipitationIn,Events,Conditions,WindDirDegrees,DateUTC
12:55 AM,24.8,14.0,64,30.04,-9999.0,NE,4.6,-,N/A,,Clear,50,2012-10-11 22:55:00
1:55 AM,24.8,17.6,74,30.04,0.5,SSW,16.1,-,N/A,Fog,Light Freezing Fog,210,2012-10-11 23:55:00
2:00 AM,25,18,65,,0,SSW,16.1,,,Fog,Heavy Fog,210,2012-10-12 00:00:00
2:55 AM,24.8,19.4,80,30.04,0.5,South,4.6,-,N/A,Fog,Light Freezing Fog,170,2012-10-12 00:55:00
3:55 AM,26.6,19.4,74,30.01,0.2,South,9.2,-,N/A,Fog,Light Freezing Fog,190,2012-10-12 01:55:00
5:00 AM,26,22,77,,0,SSW,10.4,,,Fog,Heavy Fog,210,2012-10-12 03:00:00
5:55 AM,26.6,21.2,80,30.01,0.2,SSW,11.5,-,N/A,Fog,Light Freezing Fog,210,2012-10-12 03:55:00
7:55 AM,24.8,21.2,86,30.01,0.1,South,8.1,-,N/A,Fog,Light Freezing Fog,190,2012-10-12 05:55:00
8:00 AM,26,22,78,,0,South,8.1,,,Fog,Heavy Fog,190,2012-10-12 06:00:00
8:55 AM,26.6,21.2,80,30.01,0.5,West,5.8,-,N/A,Fog,Light Freezing Fog,280,2012-10-12 06:55:00
9:55 AM,26.6,19.4,74,30.01,6.2,NE,9.2,-,N/A,,Partly Cloudy,40,2012-10-12 07:55:00
10:55 AM,24.8,19.4,80,30.04,6.2,NE,9.2,-,N/A,,Partly Cloudy,50,2012-10-12 08:55:00
11:00 AM,26,19,64,,16,NE,9.2,,,,Scattered Clouds,50,2012-10-12 09:00:00
11:55 AM,26.6,17.6,69,30.04,1.9,NE,6.9,-,N/A,,Scattered Clouds,40,2012-10-12 09:55:00
1:55 PM,30.2,23.0,75,30.04,0.1,West,6.9,-,N/A,Fog-Snow,Snow,260,2012-10-12 11:55:00
2:00 PM,30,23,65,,0,West,6.9,,,Snow,Snow,260,2012-10-12 12:00:00
2:55 PM,24.8,19.4,80,30.06,0.5,NE,11.5,-,N/A,Fog-Snow,Light Snow,50,2012-10-12 12:55:00
3:55 PM,23.0,14.0,68,30.06,2.5,NE,18.4,-,N/A,,Mist,50,2012-10-12 13:55:00
4:55 PM,23.0,14.0,68,30.06,2.5,NNE,17.3,-,N/A,,Mist,30,2012-10-12 14:55:00
5:00 PM,23,14,58,,2,NNE,17.3,,,,Mist,30,2012-10-12 15:00:00
5:55 PM,21.2,14.0,74,30.06,6.2,NNE,18.4,-,N/A,,Partly Cloudy,30,2012-10-12 15:55:00
6:55 PM,21.2,6.8,54,30.09,-9999.0,North,11.5,-,N/A,,Clear,10,2012-10-12 16:55:00
8:55 PM,21.2,-9.4,26,30.06,-9999.0,NNE,23.0,-,N/A,,Clear,20,2012-10-12 18:55:00
10:55 PM,21.2,-22.0,14,30.06,-9999.0,NE,12.7,-,N/A,,Clear,40,2012-10-12 20:55:00
11:00 PM,20,-22,5,,7,NE,12.7,,,,,40,2012-10-12 21:00:00